Weather History for Chattanooga, TN

Change the Weather History Date:

Wednesday, April 3, 2013

  Actual Average Record
Temperature  
Mean Temperature 51 °F 57 °F  
Max Temperature 58 °F 69 °F 89 °F (1999)
Min Temperature 44 °F 45 °F 25 °F (1992)
Degree Days  
Heating Degree Days 14 9  
Month to date heating degree days 37 27  
Since 1 July heating degree days 2904 3053  
Cooling Degree Days 0 1  
Month to date cooling degree days 0 3  
Year to date cooling degree days 5 10  
Moisture  
Dew Point 23 °F    
Average Humidity 35    
Maximum Humidity 46    
Minimum Humidity 24    
Precipitation  
Precipitation T in 0.13 in 3.32 in (2000)
Month to date precipitation T 0.43  
Year to date precipitation 18.39 15.16  
Snow  
Snow 0.00 in 0.00 in - ()
Month to date snowfall 0.0 0.0  
Since 1 July snowfall 0.3 3.8  
Snow Depth 0.00 in    
Sea Level Pressure  
Sea Level Pressure 30.20 in    
Wind  
Wind Speed 9 mph (NNE)    
Max Wind Speed 18 mph    
Max Gust Speed 23 mph    
Visibility 10 miles    
Events      
T = Trace of Precipitation, MM = Missing Value Source: NWS Daily Summary

Daily Weather History Graph

Daily Weather History Graph

Search for Another Location

Airport:

Trip Planner

Search our weather history database for the weather conditions in past years. The results will help you decide how hot, cold, wet, or windy it might be!

Date:

Astronomy

Apr. 03, 2013 Rise Set
Actual Time 7:24 AM EDT 8:03 PM EDT
Civil Twilight 6:58 AM EDT 8:29 PM EDT
Nautical Twilight 6:28 AM EDT 8:59 PM EDT
Astronomical Twilight 5:58 AM EDT 9:30 PM EDT
Moon 2:50 AM EDT (4/3) 1:29 PM EDT (4/3)
Length of Visible Light 13h 30m
Length of Day
12h 39m
Last Quarter, 45% of the Moon is Illuminated
Apr 3
Last Quarter
Apr 10
New
Apr 18
First Quarter
Apr 25
Full
May 2
Last Quarter

Hourly Weather History & Observations

Time (EDT) Temp. Windchill Dew Point Humidity Pressure Visibility Wind Dir Wind Speed Gust Speed Precip Events Conditions
12:53 AM 48.9 °F - 28.9 °F 46% 30.22 in 10.0 mi North 10.4 mph - N/A   Overcast
1:53 AM 48.0 °F - 26.1 °F 42% 30.20 in 10.0 mi NNE 11.5 mph - N/A   Overcast
2:53 AM 46.9 °F - 27.0 °F 46% 30.20 in 10.0 mi North 4.6 mph - N/A   Clear
3:53 AM 46.0 °F 41.0 °F 26.1 °F 46% 30.17 in 10.0 mi North 10.4 mph - N/A   Clear
4:53 AM 45.0 °F 40.1 °F 24.1 °F 44% 30.16 in 10.0 mi North 9.2 mph - N/A   Clear
5:53 AM 45.0 °F 40.6 °F 24.1 °F 44% 30.18 in 10.0 mi North 8.1 mph - N/A   Scattered Clouds
6:53 AM 45.0 °F 40.1 °F 21.0 °F 39% 30.20 in 10.0 mi NNE 9.2 mph - N/A   Mostly Cloudy
7:53 AM 45.0 °F 40.1 °F 21.0 °F 39% 30.23 in 10.0 mi NNE 9.2 mph - N/A   Mostly Cloudy
8:53 AM 46.0 °F 40.2 °F 19.9 °F 35% 30.24 in 10.0 mi NNE 12.7 mph - N/A   Mostly Cloudy
9:53 AM 48.0 °F - 19.9 °F 33% 30.23 in 10.0 mi NNE 10.4 mph - N/A   Mostly Cloudy
10:53 AM 52.0 °F - 19.9 °F 28% 30.24 in 10.0 mi NNE 13.8 mph - N/A   Mostly Cloudy
11:53 AM 55.0 °F - 21.0 °F 27% 30.23 in 10.0 mi ENE 11.5 mph - N/A   Mostly Cloudy
12:53 PM 55.9 °F - 21.9 °F 27% 30.22 in 10.0 mi NNE 11.5 mph - N/A   Mostly Cloudy
1:53 PM 57.9 °F - 21.9 °F 25% 30.21 in 10.0 mi NNE 10.4 mph - N/A   Overcast
2:53 PM 57.9 °F - 21.9 °F 25% 30.21 in 10.0 mi NNE 8.1 mph 16.1 mph N/A   Overcast
3:53 PM 57.9 °F - 24.1 °F 27% 30.19 in 10.0 mi North 12.7 mph - N/A   Overcast
4:53 PM 57.9 °F - 23.0 °F 26% 30.19 in 10.0 mi NNE 12.7 mph - N/A   Overcast
5:53 PM 57.0 °F - 24.1 °F 28% 30.17 in 10.0 mi North 15.0 mph - N/A   Overcast
6:53 PM 57.0 °F - 23.0 °F 27% 30.15 in 10.0 mi NNE 10.4 mph - N/A   Overcast
7:53 PM 55.9 °F - 24.1 °F 29% 30.16 in 10.0 mi NE 9.2 mph - N/A   Overcast
8:53 PM 55.0 °F - 24.1 °F 30% 30.17 in 10.0 mi NE 4.6 mph - N/A   Overcast
9:53 PM 55.0 °F - 23.0 °F 29% 30.17 in 10.0 mi NNE 5.8 mph - N/A   Overcast
10:53 PM 54.0 °F - 24.1 °F 31% 30.17 in 10.0 mi NNE 4.6 mph - N/A   Overcast
11:53 PM 54.0 °F - 24.1 °F 31% 30.16 in 10.0 mi East 4.6 mph - N/A   Overcast